Overview Statistics Trail Chart Weather Telemetry Raw packets
 

This is the latest recevied weather packets stored in our database for station/object MEGLR. If no packets are shown the sender has not sent any weather packets the latest 10 day(s).

<< 8 9 10 11 12 13 14 >>
Time Temp. Humidity Pressure Rain* Wind** Luminosity Snow
1788546603 15.56° C 75% 0 hPa - - - -
1788546003 15.56° C 76% 0 hPa - - - -
1788545403 15° C 78% 0 hPa - - - -
1788544803 15° C 79% 0 hPa - - - -
1788544203 15° C 81% 0 hPa - - - -
1788543602 14.44° C 82% 0 hPa - - - -
1788543003 14.44° C 84% 0 hPa - - - -
1788542404 14.44° C 85% 0 hPa - - - -
1788541803 13.89° C 86% 0 hPa - - - -
1788541204 13.89° C 85% 0 hPa - - - -
1788540603 13.89° C 87% 0 hPa - - - -
1788540002 13.89° C 88% 0 hPa - - - -
1788539403 13.33° C 88% 0 hPa - - - -
1788538803 13.33° C 90% 0 hPa - - - -
1788538203 13.33° C 92% 0 hPa - - - -
1788537603 13.33° C 92% 0 hPa - - - -
1788537003 12.78° C 92% 0 hPa - - - -
1788536403 12.78° C 93% 0 hPa - - - -
1788535804 13.33° C 91% 0 hPa - - - -
1788535221 12.78° C 94% 0 hPa - - - -
1788534602 12.78° C 96% 0 hPa - - - -
1788534003 12.78° C 96% 0 hPa - - - -
1788533408 12.22° C 97% 0 hPa - - - -
1788532803 12.78° C 97% 0 hPa - - - -
1788532203 12.78° C 96% 0 hPa - - - -

* Rain since midnight (hover to see other rain measurements)
** Current wind speed in m/s (hover to see current wind gust speed)